ZHONGXING-20A

Last updated on Jan. 29, 2020, 4:37 a.m. UTC

1 37234U 10064A   20028.86661031 -.00000351  00000-0  00000-0 0  9993
2 37234   0.5318  99.5743 0003133 231.0151 235.4401  1.00272073 33601
UTC
Height (km)
Latitude
Longitude
Inclination
Orbital Period
UTC large
Height (km)
Speed (km/s)
/
Latitude / Longitude
Inclination (degrees)
Orbital Period (minutes)
Azimuth
Elevation
Range (km)
Doppler Factor
iOS Compass Heading
iOS Angle

Next 30 passes for location: Hong Kong

Rise time Rise Azimuth (degrees) Set time Set Azimuth (degrees) Duration Max altitude (degrees)

No matching passes for this satellites